Time,TemperatureF,DewpointF,PressureIn,WindDirection,WindDirectionDegrees,WindSpeedMPH,WindSpeedGustMPH,Humidity,HourlyPrecipIn,Conditions,Clouds,dailyrainin,SoftwareType,DateUTC
2013-04-08 00:00:00,50.7,46.4,30.00,SSW,192,4.0,4.0,85,0.00,,,0.00,Wunderground v.1.15,2013-04-08 04:00:00,
2013-04-08 00:02:00,50.8,46.5,30.00,SSW,203,1.0,-999.0,85,0.00,,,0.00,Wunderground v.1.15,2013-04-08 04:02:00,
2013-04-08 00:05:00,50.8,46.5,30.00,SSW,203,1.0,-999.0,85,0.00,,,0.00,Wunderground v.1.15,2013-04-08 04:05:00,
2013-04-08 00:06:00,50.8,46.5,30.00,SSE,167,2.0,2.0,85,0.00,,,0.00,Wunderground v.1.15,2013-04-08 04:06:00,
2013-04-08 00:07:00,50.8,46.5,30.00,SSW,203,1.0,-999.0,85,0.00,,,0.00,Wunderground v.1.15,2013-04-08 04:07:00,
2013-04-08 00:15:00,51.5,46.5,30.00,SSW,195,2.0,2.0,83,0.00,,,0.00,Wunderground v.1.15,2013-04-08 04:15:00,
2013-04-08 00:20:00,51.6,46.3,30.00,SW,236,2.0,2.0,82,0.00,,,0.00,Wunderground v.1.15,2013-04-08 04:20:00,
2013-04-08 00:30:00,52.1,46.4,29.99,SSE,165,2.0,2.0,81,0.00,,,0.00,Wunderground v.1.15,2013-04-08 04:30:00,
2013-04-08 00:35:00,52.5,46.5,29.99,WSW,252,2.0,3.0,80,0.00,,,0.00,Wunderground v.1.15,2013-04-08 04:35:00,
2013-04-08 00:40:00,52.7,46.4,29.99,SSW,197,2.0,6.0,79,0.00,,,0.00,Wunderground v.1.15,2013-04-08 04:40:00,
2013-04-08 00:45:00,52.9,46.2,29.99,SSW,211,2.0,2.0,78,0.00,,,0.00,Wunderground v.1.15,2013-04-08 04:45:00,
2013-04-08 00:50:00,53.0,46.3,29.99,SW,219,2.0,2.0,78,0.00,,,0.00,Wunderground v.1.15,2013-04-08 04:50:00,
2013-04-08 01:00:00,53.1,46.4,29.99,WSW,257,2.0,5.0,78,0.00,,,0.00,Wunderground v.1.15,2013-04-08 05:00:00,
2013-04-08 01:05:00,53.1,46.4,29.98,WNW,290,3.0,5.0,78,0.00,,,0.00,Wunderground v.1.15,2013-04-08 05:05:00,
2013-04-08 01:10:00,53.1,46.4,29.98,SW,233,3.0,4.0,78,0.00,,,0.00,Wunderground v.1.15,2013-04-08 05:10:00,
2013-04-08 01:15:00,53.1,46.1,29.98,South,190,3.0,4.0,77,0.00,,,0.00,Wunderground v.1.15,2013-04-08 05:15:00,
2013-04-08 01:20:00,53.1,46.4,29.98,South,188,3.0,3.0,78,0.00,,,0.00,Wunderground v.1.15,2013-04-08 05:20:00,
2013-04-08 01:25:00,53.0,46.3,29.98,SSW,203,2.0,3.0,78,0.00,,,0.00,Wunderground v.1.15,2013-04-08 05:25:00,
2013-04-08 01:30:00,53.0,46.3,29.97,SSW,194,2.0,2.0,78,0.00,,,0.00,Wunderground v.1.15,2013-04-08 05:30:00,
2013-04-08 01:40:00,53.0,46.3,29.97,SW,221,2.0,2.0,78,0.00,,,0.00,Wunderground v.1.15,2013-04-08 05:40:00,
2013-04-08 01:45:00,53.0,46.3,29.97,West,276,1.0,2.0,78,0.00,,,0.00,Wunderground v.1.15,2013-04-08 05:45:00,
2013-04-08 01:50:00,53.1,46.4,29.97,SW,218,2.0,5.0,78,0.00,,,0.00,Wunderground v.1.15,2013-04-08 05:50:00,
2013-04-08 01:55:00,53.3,46.6,29.97,NW,312,2.0,5.0,78,0.00,,,0.00,Wunderground v.1.15,2013-04-08 05:55:00,
2013-04-08 02:05:00,53.3,46.6,29.96,WNW,302,2.0,4.0,78,0.00,,,0.00,Wunderground v.1.15,2013-04-08 06:05:00,
2013-04-08 02:10:00,53.3,46.3,29.96,WSW,238,2.0,2.0,77,0.00,,,0.00,Wunderground v.1.15,2013-04-08 06:10:00,
2013-04-08 02:15:00,53.4,46.4,29.96,WSW,249,2.0,2.0,77,0.00,,,0.00,Wunderground v.1.15,2013-04-08 06:15:00,
2013-04-08 02:20:00,53.5,46.5,29.96,SW,219,2.0,4.0,77,0.00,,,0.00,Wunderground v.1.15,2013-04-08 06:20:00,
2013-04-08 02:25:00,53.7,46.3,29.96,WNW,289,2.0,4.0,76,0.00,,,0.00,Wunderground v.1.15,2013-04-08 06:25:00,
2013-04-08 02:30:00,53.7,46.3,29.96,SW,215,2.0,2.0,76,0.00,,,0.00,Wunderground v.1.15,2013-04-08 06:30:00,
2013-04-08 02:35:00,53.7,46.3,29.96,West,264,2.0,2.0,76,0.00,,,0.00,Wunderground v.1.15,2013-04-08 06:35:00,
2013-04-08 02:40:00,53.6,46.2,29.96,SSW,204,2.0,2.0,76,0.00,,,0.00,Wunderground v.1.15,2013-04-08 06:40:00,
2013-04-08 02:50:00,53.6,46.2,29.96,WSW,246,2.0,2.0,76,0.00,,,0.00,Wunderground v.1.15,2013-04-08 06:50:00,
2013-04-08 02:55:00,53.5,46.1,29.95,WSW,246,2.0,2.0,76,0.00,,,0.00,Wunderground v.1.15,2013-04-08 06:55:00,
2013-04-08 03:05:00,53.6,46.2,29.95,SW,214,2.0,2.0,76,0.00,,,0.00,Wunderground v.1.15,2013-04-08 07:05:00,
2013-04-08 03:15:00,53.8,46.1,29.95,WSW,253,3.0,5.0,75,0.00,,,0.00,Wunderground v.1.15,2013-04-08 07:15:00,
2013-04-08 03:20:00,53.8,46.1,29.95,SSW,200,2.0,2.0,75,0.00,,,0.00,Wunderground v.1.15,2013-04-08 07:20:00,
2013-04-08 03:25:00,53.8,46.1,29.95,SSW,203,2.0,2.0,75,0.00,,,0.00,Wunderground v.1.15,2013-04-08 07:25:00,
2013-04-08 03:30:00,53.7,46.0,29.95,SW,236,2.0,2.0,75,0.00,,,0.00,Wunderground v.1.15,2013-04-08 07:30:00,
2013-04-08 03:40:00,53.8,45.7,29.95,NW,314,2.0,2.0,74,0.00,,,0.00,Wunderground v.1.15,2013-04-08 07:40:00,
2013-04-08 03:45:00,53.8,45.7,29.95,South,185,2.0,2.0,74,0.00,,,0.00,Wunderground v.1.15,2013-04-08 07:45:00,
2013-04-08 03:50:00,53.7,45.6,29.95,WSW,238,2.0,2.0,74,0.00,,,0.00,Wunderground v.1.15,2013-04-08 07:50:00,
2013-04-08 03:55:00,53.7,46.0,29.95,WSW,249,2.0,2.0,75,0.00,,,0.00,Wunderground v.1.15,2013-04-08 07:55:00,
2013-04-08 04:00:00,53.7,46.0,29.95,SW,228,1.0,1.0,75,0.00,,,0.00,Wunderground v.1.15,2013-04-08 08:00:00,
2013-04-08 04:05:00,53.6,45.9,29.96,West,276,1.0,2.0,75,0.00,,,0.00,Wunderground v.1.15,2013-04-08 08:05:00,
2013-04-08 04:15:00,53.4,45.7,29.96,WNW,285,1.0,2.0,75,0.00,,,0.00,Wunderground v.1.15,2013-04-08 08:15:00,
2013-04-08 04:20:00,53.3,45.6,29.96,SW,224,1.0,1.0,75,0.00,,,0.00,Wunderground v.1.15,2013-04-08 08:20:00,
2013-04-08 04:25:00,53.0,45.6,29.96,WSW,252,1.0,1.0,76,0.00,,,0.00,Wunderground v.1.15,2013-04-08 08:25:00,
2013-04-08 04:35:00,52.8,45.8,29.96,WNW,300,1.0,2.0,77,0.00,,,0.00,Wunderground v.1.15,2013-04-08 08:35:00,
2013-04-08 04:40:00,52.6,45.6,29.96,WNW,294,1.0,1.0,77,0.00,,,0.00,Wunderground v.1.15,2013-04-08 08:40:00,
2013-04-08 04:45:00,52.5,45.5,29.96,West,274,1.0,1.0,77,0.00,,,0.00,Wunderground v.1.15,2013-04-08 08:45:00,
2013-04-08 04:50:00,52.5,45.5,29.96,WNW,300,1.0,2.0,77,0.00,,,0.00,Wunderground v.1.15,2013-04-08 08:50:00,
2013-04-08 04:55:00,52.4,45.4,29.96,NW,308,1.0,2.0,77,0.00,,,0.00,Wunderground v.1.15,2013-04-08 08:55:00,
2013-04-08 05:00:00,52.3,45.3,29.97,WNW,302,1.0,2.0,77,0.00,,,0.00,Wunderground v.1.15,2013-04-08 09:00:00,
2013-04-08 05:10:00,52.0,45.4,29.97,WSW,257,1.0,1.0,78,0.00,,,0.00,Wunderground v.1.15,2013-04-08 09:10:00,
2013-04-08 05:15:00,51.8,45.2,29.97,West,273,0.0,1.0,78,0.00,,,0.00,Wunderground v.1.15,2013-04-08 09:15:00,
2013-04-08 05:20:00,51.7,45.4,29.97,West,273,0.0,1.0,79,0.00,,,0.00,Wunderground v.1.15,2013-04-08 09:20:00,
2013-04-08 05:25:00,51.6,45.3,29.97,West,264,1.0,1.0,79,0.00,,,0.00,Wunderground v.1.15,2013-04-08 09:25:00,
2013-04-08 05:35:00,51.6,45.3,29.97,SW,235,1.0,3.0,79,0.00,,,0.00,Wunderground v.1.15,2013-04-08 09:35:00,
2013-04-08 05:40:00,51.5,45.2,29.97,WNW,283,1.0,1.0,79,0.00,,,0.00,Wunderground v.1.15,2013-04-08 09:40:00,
2013-04-08 05:45:00,51.5,45.2,29.98,WNW,294,1.0,2.0,79,0.00,,,0.00,Wunderground v.1.15,2013-04-08 09:45:00,
2013-04-08 05:55:00,51.3,45.3,29.98,West,278,1.0,2.0,80,0.00,,,0.00,Wunderground v.1.15,2013-04-08 09:55:00,
2013-04-08 06:00:00,51.1,45.1,29.98,NW,305,1.0,1.0,80,0.00,,,0.00,Wunderground v.1.15,2013-04-08 10:00:00,
2013-04-08 06:10:00,50.8,45.2,29.98,West,264,1.0,1.0,81,0.00,,,0.00,Wunderground v.1.15,2013-04-08 10:10:00,
2013-04-08 06:15:00,50.7,45.1,29.99,WNW,285,1.0,1.0,81,0.00,,,0.00,Wunderground v.1.15,2013-04-08 10:15:00,
2013-04-08 06:25:00,50.5,45.2,29.99,WNW,297,1.0,2.0,82,0.00,,,0.00,Wunderground v.1.15,2013-04-08 10:25:00,
2013-04-08 06:30:00,50.5,45.2,29.99,West,280,1.0,1.0,82,0.00,,,0.00,Wunderground v.1.15,2013-04-08 10:30:00,
2013-04-08 06:35:00,50.5,44.9,30.00,North,353,1.0,1.0,81,0.00,,,0.00,Wunderground v.1.15,2013-04-08 10:35:00,
2013-04-08 06:40:00,50.3,45.0,30.00,WNW,294,0.0,0.0,82,0.00,,,0.00,Wunderground v.1.15,2013-04-08 10:40:00,
2013-04-08 06:45:00,50.3,45.0,30.00,WNW,295,0.0,1.0,82,0.00,,,0.00,Wunderground v.1.15,2013-04-08 10:45:00,
2013-04-08 06:50:00,50.2,44.9,30.00,SSE,160,0.0,1.0,82,0.00,,,0.00,Wunderground v.1.15,2013-04-08 10:50:00,
2013-04-08 07:00:00,50.3,45.0,30.00,SSE,150,1.0,1.0,82,0.00,,,0.00,Wunderground v.1.15,2013-04-08 11:00:00,
2013-04-08 07:05:00,50.3,45.0,30.01,SSE,150,0.0,1.0,82,0.00,,,0.00,Wunderground v.1.15,2013-04-08 11:05:00,
2013-04-08 07:10:00,50.1,44.8,30.01,SSE,150,0.0,0.0,82,0.00,,,0.00,Wunderground v.1.15,2013-04-08 11:10:00,
2013-04-08 07:15:00,50.6,45.3,30.01,SSE,150,0.0,1.0,82,0.00,,,0.00,Wunderground v.1.15,2013-04-08 11:15:00,
2013-04-08 07:20:00,50.9,45.6,30.01,SSE,150,0.0,2.0,82,0.00,,,0.00,Wunderground v.1.15,2013-04-08 11:20:00,
2013-04-08 07:25:00,51.4,45.8,30.02,SE,138,1.0,2.0,81,0.00,,,0.00,Wunderground v.1.15,2013-04-08 11:25:00,
2013-04-08 07:30:00,51.4,45.8,30.02,SE,125,2.0,2.0,81,0.00,,,0.00,Wunderground v.1.15,2013-04-08 11:30:00,
2013-04-08 07:40:00,52.5,46.5,30.02,SSE,156,1.0,1.0,80,0.00,,,0.00,Wunderground v.1.15,2013-04-08 11:40:00,
2013-04-08 07:45:00,52.8,46.1,30.03,SE,139,1.0,2.0,78,0.00,,,0.00,Wunderground v.1.15,2013-04-08 11:45:00,
2013-04-08 07:50:00,52.9,46.2,30.03,SSE,167,1.0,1.0,78,0.00,,,0.00,Wunderground v.1.15,2013-04-08 11:50:00,
2013-04-08 07:55:00,53.0,46.3,30.03,SSW,198,1.0,1.0,78,0.00,,,0.00,Wunderground v.1.15,2013-04-08 11:55:00,
2013-04-08 08:05:00,53.3,46.6,30.02,WNW,291,0.0,1.0,78,0.00,,,0.00,Wunderground v.1.15,2013-04-08 12:05:00,
2013-04-08 08:15:00,53.1,46.1,30.02,WNW,293,1.0,1.0,77,0.00,,,0.00,Wunderground v.1.15,2013-04-08 12:15:00,
2013-04-08 08:20:00,53.3,46.6,30.03,SSW,198,0.0,1.0,78,0.00,,,0.00,Wunderground v.1.15,2013-04-08 12:20:00,
2013-04-08 08:25:00,53.2,46.2,30.03,SSE,163,0.0,1.0,77,0.00,,,0.00,Wunderground v.1.15,2013-04-08 12:25:00,
2013-04-08 08:30:00,52.5,45.8,30.03,SSE,148,1.0,2.0,78,0.00,,,0.00,Wunderground v.1.15,2013-04-08 12:30:00,
2013-04-08 08:40:00,51.7,46.1,30.02,SSE,148,1.0,1.0,81,0.00,,,0.00,Wunderground v.1.15,2013-04-08 12:40:00,
2013-04-08 08:45:00,51.9,46.3,30.02,SSE,148,0.0,1.0,81,0.00,,,0.00,Wunderground v.1.15,2013-04-08 12:45:00,
2013-04-08 08:55:00,52.3,46.3,30.02,SE,139,2.0,4.0,80,0.00,,,0.00,Wunderground v.1.15,2013-04-08 12:55:00,
2013-04-08 09:00:00,51.7,46.1,30.02,SE,145,3.0,3.0,81,0.00,,,0.00,Wunderground v.1.15,2013-04-08 13:00:00,
2013-04-08 09:05:00,51.5,46.2,30.02,SSE,152,3.0,3.0,82,0.00,,,0.00,Wunderground v.1.15,2013-04-08 13:05:00,
2013-04-08 09:10:00,51.5,46.2,30.02,SE,136,2.0,2.0,82,0.00,,,0.00,Wunderground v.1.15,2013-04-08 13:10:00,
2013-04-08 09:15:00,51.3,46.0,30.03,SE,146,2.0,3.0,82,0.00,,,0.00,Wunderground v.1.15,2013-04-08 13:15:00,
2013-04-08 09:20:00,51.2,45.9,30.03,SSE,166,2.0,2.0,82,0.00,,,0.00,Wunderground v.1.15,2013-04-08 13:20:00,
2013-04-08 09:25:00,51.8,46.5,30.03,SSW,204,3.0,3.0,82,0.00,,,0.00,Wunderground v.1.15,2013-04-08 13:25:00,
2013-04-08 09:30:00,52.2,46.9,30.03,SSE,149,2.0,3.0,82,0.00,,,0.00,Wunderground v.1.15,2013-04-08 13:30:00,
2013-04-08 09:40:00,53.1,47.1,30.04,SSW,197,3.0,3.0,80,0.00,,,0.00,Wunderground v.1.15,2013-04-08 13:40:00,
2013-04-08 09:45:00,53.6,47.6,30.04,SE,126,3.0,3.0,80,0.00,,,0.00,Wunderground v.1.15,2013-04-08 13:45:00,
2013-04-08 09:50:00,54.2,47.8,30.05,SE,142,2.0,2.0,79,0.00,,,0.00,Wunderground v.1.15,2013-04-08 13:50:00,
2013-04-08 09:55:00,54.3,47.2,30.05,SSE,149,2.0,3.0,77,0.00,,,0.00,Wunderground v.1.15,2013-04-08 13:55:00,
2013-04-08 10:00:00,54.3,47.6,30.05,SSE,149,2.0,2.0,78,0.00,,,0.00,Wunderground v.1.15,2013-04-08 14:00:00,
2013-04-08 10:05:00,54.7,48.0,30.05,SSE,159,1.0,2.0,78,0.00,,,0.00,Wunderground v.1.15,2013-04-08 14:05:00,
2013-04-08 10:15:00,55.7,48.6,30.04,SSE,150,1.0,1.0,77,0.00,,,0.00,Wunderground v.1.15,2013-04-08 14:15:00,
2013-04-08 10:20:00,56.5,48.7,30.05,SE,146,2.0,2.0,75,0.00,,,0.00,Wunderground v.1.15,2013-04-08 14:20:00,
2013-04-08 10:25:00,56.8,48.2,30.04,SE,136,2.0,2.0,73,0.00,,,0.00,Wunderground v.1.15,2013-04-08 14:25:00,
2013-04-08 10:30:00,57.1,48.9,30.05,SE,139,2.0,2.0,74,0.00,,,0.00,Wunderground v.1.15,2013-04-08 14:30:00,
2013-04-08 10:35:00,57.5,48.9,30.04,SSE,162,2.0,2.0,73,0.00,,,0.00,Wunderground v.1.15,2013-04-08 14:35:00,
2013-04-08 10:45:00,58.5,49.1,30.05,ESE,117,1.0,2.0,71,0.00,,,0.00,Wunderground v.1.15,2013-04-08 14:45:00,
2013-04-08 10:55:00,59.3,49.1,30.05,SE,138,1.0,1.0,69,0.00,,,0.00,Wunderground v.1.15,2013-04-08 14:55:00,
2013-04-08 11:00:00,60.0,49.0,30.05,SE,139,1.0,1.0,67,0.00,,,0.00,Wunderground v.1.15,2013-04-08 15:00:00,
2013-04-08 11:05:00,60.1,48.7,30.05,SE,124,1.0,2.0,66,0.00,,,0.00,Wunderground v.1.15,2013-04-08 15:05:00,
2013-04-08 11:10:00,60.2,48.4,30.05,SE,142,2.0,2.0,65,0.00,,,0.00,Wunderground v.1.15,2013-04-08 15:10:00,
2013-04-08 11:25:00,56.5,47.6,30.06,SSE,148,4.0,5.0,72,0.00,,,0.00,Wunderground v.1.15,2013-04-08 15:25:00,
2013-04-08 11:30:00,55.9,47.7,30.06,SE,142,4.0,4.0,74,0.00,,,0.00,Wunderground v.1.15,2013-04-08 15:30:00,
2013-04-08 11:35:00,56.4,48.6,30.06,South,181,4.0,4.0,75,0.00,,,0.00,Wunderground v.1.15,2013-04-08 15:35:00,
2013-04-08 11:40:00,57.1,48.5,30.06,SSE,150,3.0,3.0,73,0.00,,,0.00,Wunderground v.1.15,2013-04-08 15:40:00,
2013-04-08 11:45:00,56.7,47.8,30.06,South,186,4.0,4.0,72,0.00,,,0.00,Wunderground v.1.15,2013-04-08 15:45:00,
2013-04-08 11:50:00,55.9,47.7,30.06,SSE,153,4.0,4.0,74,0.00,,,0.00,Wunderground v.1.15,2013-04-08 15:50:00,
2013-04-08 12:00:00,56.7,48.5,30.06,SE,146,4.0,4.0,74,0.00,,,0.00,Wunderground v.1.15,2013-04-08 16:00:00,
2013-04-08 12:05:00,57.7,48.0,30.06,SE,139,5.0,6.0,70,0.00,,,0.00,Wunderground v.1.15,2013-04-08 16:05:00,
2013-04-08 12:10:00,58.2,48.1,30.06,ESE,117,5.0,6.0,69,0.00,,,0.00,Wunderground v.1.15,2013-04-08 16:10:00,
2013-04-08 12:15:00,58.6,48.1,30.06,SE,135,5.0,6.0,68,0.00,,,0.00,Wunderground v.1.15,2013-04-08 16:15:00,
2013-04-08 12:25:00,59.3,47.9,30.06,SE,143,6.0,7.0,66,0.00,,,0.00,Wunderground v.1.15,2013-04-08 16:25:00,
2013-04-08 12:35:00,58.1,47.2,30.05,SE,131,5.0,6.0,67,0.00,,,0.00,Wunderground v.1.15,2013-04-08 16:35:00,
2013-04-08 12:40:00,58.1,47.6,30.05,SE,135,5.0,6.0,68,0.00,,,0.00,Wunderground v.1.15,2013-04-08 16:40:00,
2013-04-08 12:45:00,57.8,47.7,30.05,SE,129,5.0,6.0,69,0.00,,,0.00,Wunderground v.1.15,2013-04-08 16:45:00,
2013-04-08 12:50:00,57.7,47.6,30.05,SE,129,4.0,4.0,69,0.00,,,0.00,Wunderground v.1.15,2013-04-08 16:50:00,
2013-04-08 13:00:00,58.1,47.6,30.05,SE,134,4.0,4.0,68,0.00,,,0.00,Wunderground v.1.15,2013-04-08 17:00:00,
2013-04-08 13:05:00,58.3,47.4,30.05,SE,133,4.0,4.0,67,0.00,,,0.00,Wunderground v.1.15,2013-04-08 17:05:00,
2013-04-08 13:10:00,58.4,47.1,30.05,SE,125,4.0,5.0,66,0.00,,,0.00,Wunderground v.1.15,2013-04-08 17:10:00,
2013-04-08 13:15:00,58.5,45.9,30.04,ESE,120,5.0,5.0,63,0.00,,,0.00,Wunderground v.1.15,2013-04-08 17:15:00,
2013-04-08 13:20:00,58.7,45.7,30.04,ESE,111,5.0,5.0,62,0.00,,,0.00,Wunderground v.1.15,2013-04-08 17:20:00,
2013-04-08 13:25:00,58.9,45.9,30.04,SE,125,5.0,5.0,62,0.00,,,0.00,Wunderground v.1.15,2013-04-08 17:25:00,
2013-04-08 13:30:00,59.1,47.3,30.04,ESE,111,5.0,5.0,65,0.00,,,0.00,Wunderground v.1.15,2013-04-08 17:30:00,
2013-04-08 13:40:00,59.0,46.8,30.03,SSE,167,5.0,5.0,64,0.00,,,0.00,Wunderground v.1.15,2013-04-08 17:40:00,
2013-04-08 13:45:00,58.4,46.3,30.03,SE,128,5.0,6.0,64,0.00,,,0.00,Wunderground v.1.15,2013-04-08 17:45:00,
2013-04-08 13:50:00,58.6,47.7,30.03,SSE,153,5.0,6.0,67,0.00,,,0.00,Wunderground v.1.15,2013-04-08 17:50:00,
2013-04-08 13:55:00,58.8,46.6,30.03,SE,142,5.0,6.0,64,0.00,,,0.00,Wunderground v.1.15,2013-04-08 17:55:00,
2013-04-08 14:05:00,58.9,45.9,30.03,SE,128,5.0,5.0,62,0.00,,,0.00,Wunderground v.1.15,2013-04-08 18:05:00,
2013-04-08 14:10:00,59.0,46.8,30.03,SSW,193,5.0,6.0,64,0.00,,,0.00,Wunderground v.1.15,2013-04-08 18:10:00,
2013-04-08 14:15:00,58.2,46.5,30.03,SE,139,5.0,6.0,65,0.00,,,0.00,Wunderground v.1.15,2013-04-08 18:15:00,
2013-04-08 14:25:00,58.2,46.9,30.02,SE,132,5.0,8.0,66,0.00,,,0.00,Wunderground v.1.15,2013-04-08 18:25:00,
2013-04-08 14:35:00,57.7,48.0,30.02,SSE,163,6.0,6.0,70,0.00,,,0.00,Wunderground v.1.15,2013-04-08 18:35:00,
2013-04-08 14:40:00,57.8,47.7,30.02,ESE,120,5.0,5.0,69,0.00,,,0.00,Wunderground v.1.15,2013-04-08 18:40:00,
2013-04-08 14:45:00,57.9,47.8,30.02,SE,134,5.0,5.0,69,0.00,,,0.00,Wunderground v.1.15,2013-04-08 18:45:00,
2013-04-08 14:50:00,57.6,47.9,30.02,SSE,153,5.0,5.0,70,0.00,,,0.00,Wunderground v.1.15,2013-04-08 18:50:00,
2013-04-08 15:00:00,58.1,47.6,30.02,SSE,159,5.0,6.0,68,0.00,,,0.00,Wunderground v.1.15,2013-04-08 19:00:00,
2013-04-08 15:05:00,58.5,48.0,30.01,SSE,153,5.0,8.0,68,0.00,,,0.00,Wunderground v.1.15,2013-04-08 19:05:00,
2013-04-08 15:10:00,58.7,47.0,30.01,SSE,161,5.0,6.0,65,0.00,,,0.00,Wunderground v.1.15,2013-04-08 19:10:00,
2013-04-08 15:15:00,59.0,47.2,30.01,SSE,163,4.0,6.0,65,0.00,,,0.00,Wunderground v.1.15,2013-04-08 19:15:00,
2013-04-08 15:20:00,59.0,47.2,30.01,SE,134,5.0,5.0,65,0.00,,,0.00,Wunderground v.1.15,2013-04-08 19:20:00,
2013-04-08 15:30:00,58.6,48.1,30.01,South,177,6.0,7.0,68,0.00,,,0.00,Wunderground v.1.15,2013-04-08 19:30:00,
2013-04-08 15:35:00,59.1,47.7,30.01,WSW,252,6.0,7.0,66,0.00,,,0.00,Wunderground v.1.15,2013-04-08 19:35:00,
2013-04-08 15:40:00,59.9,48.5,30.01,SSW,203,4.0,4.0,66,0.00,,,0.00,Wunderground v.1.15,2013-04-08 19:40:00,
2013-04-08 15:45:00,59.7,47.9,30.01,SSE,149,4.0,8.0,65,0.00,,,0.00,Wunderground v.1.15,2013-04-08 19:45:00,
2013-04-08 15:50:00,58.9,48.0,30.01,West,273,5.0,5.0,67,0.00,,,0.00,Wunderground v.1.15,2013-04-08 19:50:00,
2013-04-08 15:55:00,58.9,48.4,30.01,SSE,167,5.0,6.0,68,0.00,,,0.00,Wunderground v.1.15,2013-04-08 19:55:00,
2013-04-08 16:05:00,58.8,48.3,30.00,South,172,5.0,5.0,68,0.00,,,0.00,Wunderground v.1.15,2013-04-08 20:05:00,
2013-04-08 16:10:00,58.9,48.4,30.00,SSW,192,5.0,5.0,68,0.00,,,0.00,Wunderground v.1.15,2013-04-08 20:10:00,
2013-04-08 16:15:00,59.5,48.1,30.00,SSW,206,4.0,5.0,66,0.00,,,0.00,Wunderground v.1.15,2013-04-08 20:15:00,
2013-04-08 16:20:00,60.3,48.1,30.00,SSE,150,4.0,9.0,64,0.00,,,0.00,Wunderground v.1.15,2013-04-08 20:20:00,
2013-04-08 16:25:00,60.9,48.2,30.00,SSE,165,4.0,9.0,63,0.00,,,0.00,Wunderground v.1.15,2013-04-08 20:25:00,
2013-04-08 16:30:00,61.5,48.4,30.00,SSE,167,4.0,4.0,62,0.00,,,0.00,Wunderground v.1.15,2013-04-08 20:30:00,
2013-04-08 16:35:00,61.9,48.3,29.99,SSW,195,4.0,5.0,61,0.00,,,0.00,Wunderground v.1.15,2013-04-08 20:35:00,
2013-04-08 16:45:00,62.3,48.7,30.00,SSE,166,4.0,5.0,61,0.00,,,0.00,Wunderground v.1.15,2013-04-08 20:45:00,
2013-04-08 16:50:00,62.1,47.6,29.99,South,172,4.0,4.0,59,0.00,,,0.00,Wunderground v.1.15,2013-04-08 20:50:00,
2013-04-08 16:55:00,62.1,48.0,30.00,SSE,156,4.0,4.0,60,0.00,,,0.00,Wunderground v.1.15,2013-04-08 20:55:00,
2013-04-08 17:00:00,62.0,48.0,29.99,South,174,5.0,5.0,60,0.00,,,0.00,Wunderground v.1.15,2013-04-08 21:00:00,
2013-04-08 17:05:00,61.3,48.2,29.99,South,174,4.0,5.0,62,0.00,,,0.00,Wunderground v.1.15,2013-04-08 21:05:00,
2013-04-08 17:10:00,60.6,47.9,29.99,SE,139,4.0,4.0,63,0.00,,,0.00,Wunderground v.1.15,2013-04-08 21:10:00,
2013-04-08 17:15:00,60.7,48.0,29.99,South,170,4.0,5.0,63,0.00,,,0.00,Wunderground v.1.15,2013-04-08 21:15:00,
2013-04-08 17:20:00,61.0,47.9,29.99,South,183,5.0,5.0,62,0.00,,,0.00,Wunderground v.1.15,2013-04-08 21:20:00,
2013-04-08 17:25:00,61.3,47.7,29.99,SSE,153,4.0,5.0,61,0.00,,,0.00,Wunderground v.1.15,2013-04-08 21:25:00,
2013-04-08 17:35:00,61.3,47.7,29.99,SE,131,4.0,4.0,61,0.00,,,0.00,Wunderground v.1.15,2013-04-08 21:35:00,
2013-04-08 17:40:00,61.7,48.1,29.99,SSE,149,3.0,3.0,61,0.00,,,0.00,Wunderground v.1.15,2013-04-08 21:40:00,
2013-04-08 17:45:00,61.7,48.1,29.99,SSW,207,3.0,4.0,61,0.00,,,0.00,Wunderground v.1.15,2013-04-08 21:45:00,
2013-04-08 17:55:00,60.3,47.6,29.99,South,170,4.0,7.0,63,0.00,,,0.00,Wunderground v.1.15,2013-04-08 21:55:00,
2013-04-08 18:00:00,59.4,47.6,29.99,SW,224,4.0,4.0,65,0.00,,,0.00,Wunderground v.1.15,2013-04-08 22:00:00,
2013-04-08 18:10:00,58.9,47.6,29.99,SSE,149,3.0,5.0,66,0.00,,,0.00,Wunderground v.1.15,2013-04-08 22:10:00,
2013-04-08 18:15:00,58.3,47.8,29.99,SSE,150,4.0,5.0,68,0.00,,,0.00,Wunderground v.1.15,2013-04-08 22:15:00,
2013-04-08 18:20:00,58.0,47.9,29.99,SSE,148,4.0,4.0,69,0.00,,,0.00,Wunderground v.1.15,2013-04-08 22:20:00,
2013-04-08 18:25:00,56.9,47.2,29.99,SE,133,4.0,4.0,70,0.00,,,0.00,Wunderground v.1.15,2013-04-08 22:25:00,
2013-04-08 18:30:00,55.5,47.0,29.99,SSE,150,5.0,5.0,73,0.00,,,0.00,Wunderground v.1.15,2013-04-08 22:30:00,
2013-04-08 18:35:00,54.1,46.3,29.99,SSE,150,5.0,5.0,75,0.00,,,0.00,Wunderground v.1.15,2013-04-08 22:35:00,
2013-04-08 18:40:00,53.1,46.8,29.99,SSE,150,5.0,5.0,79,0.00,,,0.00,Wunderground v.1.15,2013-04-08 22:40:00,
2013-04-08 18:45:00,52.4,46.7,29.99,SE,145,4.0,6.0,81,0.00,,,0.00,Wunderground v.1.15,2013-04-08 22:45:00,
2013-04-08 18:55:00,51.2,46.2,29.99,SE,143,6.0,7.0,83,0.00,,,0.00,Wunderground v.1.15,2013-04-08 22:55:00,
2013-04-08 19:00:00,50.6,45.9,29.99,SE,140,6.0,6.0,84,0.00,,,0.00,Wunderground v.1.15,2013-04-08 23:00:00,
2013-04-08 19:10:00,49.7,46.0,30.00,SSE,148,4.0,4.0,87,0.00,,,0.00,Wunderground v.1.15,2013-04-08 23:10:00,
2013-04-08 19:15:00,49.3,45.9,29.99,SE,145,5.0,6.0,88,0.00,,,0.00,Wunderground v.1.15,2013-04-08 23:15:00,
2013-04-08 19:20:00,49.0,45.6,30.00,SE,146,5.0,5.0,88,0.00,,,0.00,Wunderground v.1.15,2013-04-08 23:20:00,
2013-04-08 19:25:00,48.7,45.6,30.00,SE,146,5.0,5.0,89,0.00,,,0.00,Wunderground v.1.15,2013-04-08 23:25:00,
2013-04-08 19:35:00,48.5,45.7,30.00,South,179,2.0,3.0,90,0.00,,,0.00,Wunderground v.1.15,2013-04-08 23:35:00,
2013-04-08 19:40:00,48.6,45.8,29.99,SE,126,1.0,1.0,90,0.00,,,0.00,Wunderground v.1.15,2013-04-08 23:40:00,
2013-04-08 19:45:00,48.8,46.3,29.99,SE,145,1.0,3.0,91,0.00,,,0.00,Wunderground v.1.15,2013-04-08 23:45:00,
2013-04-08 19:50:00,49.0,46.2,29.99,SSE,159,2.0,2.0,90,0.00,,,0.00,Wunderground v.1.15,2013-04-08 23:50:00,
2013-04-08 20:00:00,48.9,46.1,29.99,SSE,167,2.0,2.0,90,0.00,,,0.00,Wunderground v.1.15,2013-04-09 00:00:00,
2013-04-08 20:05:00,48.8,46.0,29.99,SE,136,2.0,2.0,90,0.00,,,0.00,Wunderground v.1.15,2013-04-09 00:05:00,
2013-04-08 20:10:00,48.8,46.3,29.99,SE,143,2.0,2.0,91,0.00,,,0.00,Wunderground v.1.15,2013-04-09 00:10:00,
2013-04-08 20:15:00,48.8,46.3,29.99,SE,145,1.0,2.0,91,0.00,,,0.00,Wunderground v.1.15,2013-04-09 00:15:00,
2013-04-08 20:20:00,48.9,46.4,29.99,ESE,123,1.0,1.0,91,0.00,,,0.00,Wunderground v.1.15,2013-04-09 00:20:00,
2013-04-08 20:25:00,49.0,46.5,29.99,ESE,117,1.0,1.0,91,0.00,,,0.00,Wunderground v.1.15,2013-04-09 00:25:00,
2013-04-08 20:30:00,49.1,46.6,29.99,ESE,122,1.0,1.0,91,0.00,,,0.00,Wunderground v.1.15,2013-04-09 00:30:00,
2013-04-08 20:40:00,49.0,46.5,29.99,ESE,122,0.0,0.0,91,0.00,,,0.00,Wunderground v.1.15,2013-04-09 00:40:00,
2013-04-08 20:45:00,49.0,46.5,30.00,ESE,123,0.0,0.0,91,0.00,,,0.00,Wunderground v.1.15,2013-04-09 00:45:00,
2013-04-08 20:50:00,49.1,46.6,30.00,ESE,123,0.0,1.0,91,0.00,,,0.00,Wunderground v.1.15,2013-04-09 00:50:00,
2013-04-08 20:55:00,49.3,46.8,30.00,ESE,122,1.0,1.0,91,0.00,,,0.00,Wunderground v.1.15,2013-04-09 00:55:00,
2013-04-08 21:05:00,50.7,48.7,30.00,West,278,0.0,2.0,93,0.00,,,0.00,Wunderground v.1.15,2013-04-09 01:05:00,
2013-04-08 21:10:00,51.9,49.6,30.00,SW,218,1.0,1.0,92,0.00,,,0.00,Wunderground v.1.15,2013-04-09 01:10:00,
2013-04-08 21:20:00,52.9,50.0,30.00,SSW,207,0.0,0.0,90,0.00,,,0.00,Wunderground v.1.15,2013-04-09 01:20:00,
2013-04-08 21:25:00,53.2,50.3,30.00,SW,225,0.0,0.0,90,0.00,,,0.00,Wunderground v.1.15,2013-04-09 01:25:00,
2013-04-08 21:30:00,53.4,50.2,30.00,South,187,0.0,0.0,89,0.00,,,0.00,Wunderground v.1.15,2013-04-09 01:30:00,
2013-04-08 21:35:00,53.1,49.6,30.00,SE,143,1.0,1.0,88,0.00,,,0.00,Wunderground v.1.15,2013-04-09 01:35:00,
2013-04-08 21:45:00,50.8,47.1,29.99,SSE,163,2.0,3.0,87,0.00,,,0.00,Wunderground v.1.15,2013-04-09 01:45:00,
2013-04-08 21:50:00,50.0,46.6,30.00,SE,136,2.0,3.0,88,0.00,,,0.00,Wunderground v.1.15,2013-04-09 01:50:00,
2013-04-08 21:55:00,49.7,46.6,30.00,SSE,162,2.0,3.0,89,0.00,,,0.00,Wunderground v.1.15,2013-04-09 01:55:00,
2013-04-08 22:00:00,49.5,46.7,30.00,SSE,152,2.0,3.0,90,0.00,,,0.00,Wunderground v.1.15,2013-04-09 02:00:00,
2013-04-08 22:05:00,49.4,46.6,29.99,SSE,161,3.0,3.0,90,0.00,,,0.00,Wunderground v.1.15,2013-04-09 02:05:00,
2013-04-08 22:10:00,49.2,46.4,29.99,SSE,153,3.0,3.0,90,0.00,,,0.00,Wunderground v.1.15,2013-04-09 02:10:00,
2013-04-08 22:15:00,49.2,46.7,29.99,SSE,152,3.0,3.0,91,0.00,,,0.00,Wunderground v.1.15,2013-04-09 02:15:00,
2013-04-08 22:25:00,49.2,46.7,29.97,SSE,161,3.0,4.0,91,0.00,,,0.00,Wunderground v.1.15,2013-04-09 02:25:00,
2013-04-08 22:30:00,49.0,46.5,29.97,SW,232,2.0,2.0,91,0.00,,,0.00,Wunderground v.1.15,2013-04-09 02:30:00,
2013-04-08 22:35:00,49.0,46.5,29.98,SE,138,1.0,2.0,91,0.00,,,0.00,Wunderground v.1.15,2013-04-09 02:35:00,
2013-04-08 22:40:00,49.2,47.0,29.98,SSW,213,1.0,1.0,92,0.00,,,0.00,Wunderground v.1.15,2013-04-09 02:40:00,
2013-04-08 22:45:00,49.4,47.2,29.99,SE,140,2.0,2.0,92,0.00,,,0.00,Wunderground v.1.15,2013-04-09 02:45:00,
2013-04-08 22:50:00,49.5,47.3,29.99,SSE,165,1.0,1.0,92,0.00,,,0.00,Wunderground v.1.15,2013-04-09 02:50:00,
2013-04-08 23:00:00,49.7,47.2,29.99,South,173,1.0,1.0,91,0.00,,,0.00,Wunderground v.1.15,2013-04-09 03:00:00,
2013-04-08 23:05:00,49.7,47.2,29.99,SSE,153,1.0,1.0,91,0.00,,,0.00,Wunderground v.1.15,2013-04-09 03:05:00,
2013-04-08 23:10:00,49.6,47.1,29.99,SW,219,1.0,1.0,91,0.00,,,0.00,Wunderground v.1.15,2013-04-09 03:10:00,
2013-04-08 23:20:00,50.0,47.8,29.99,SSE,158,1.0,1.0,92,0.00,,,0.00,Wunderground v.1.15,2013-04-09 03:20:00,
2013-04-08 23:30:00,51.0,49.0,29.98,SW,215,1.0,1.0,93,0.00,,,0.00,Wunderground v.1.15,2013-04-09 03:30:00,
2013-04-08 23:35:00,51.2,49.2,29.97,SSE,161,1.0,1.0,93,0.00,,,0.00,Wunderground v.1.15,2013-04-09 03:35:00,
2013-04-08 23:40:00,51.4,49.4,29.97,SSW,201,0.0,0.0,93,0.00,,,0.00,Wunderground v.1.15,2013-04-09 03:40:00,
2013-04-08 23:50:00,51.7,49.7,29.97,SSW,194,0.0,2.0,93,0.00,,,0.00,Wunderground v.1.15,2013-04-09 03:50:00,
2013-04-08 23:55:00,51.8,49.8,29.97,South,169,0.0,2.0,93,0.00,,,0.00,Wunderground v.1.15,2013-04-09 03:55:00,